DW9408 Weather Reports


Display with metric or nautical units.
time (UTC)temp
F
wind
direction
speed
MPH
gust
MPH
rain 1hr
in
rain 24hr
in
rain mn
in
humidity
%
barometer
mb
20260901160636 88 267 0.0 3.0 0.00 0.00 0.00 76 1019.9
20260901160133 88 236 0.0 4.0 0.00 0.00 0.00 74 1019.9
20260901155632 87 350 0.0 4.0 0.00 0.00 0.00 70 1019.9
20260901155134 87 178 0.0 0.0 0.00 0.00 0.00 78 1020.0
20260901154630 87 178 0.0 0.0 0.00 0.00 0.00 75 1020.0
20260901154130 87 165 0.0 0.0 0.00 0.00 0.00 73 1020.0
20260901153627 87 263 0.0 0.0 0.00 0.00 0.00 76 1020.1
20260901153124 87 266 0.0 0.0 0.00 0.00 0.00 75 1020.1
20260901152123 86 266 0.0 0.0 0.00 0.00 0.00 75 1020.2
20260901151621 86 261 0.0 0.0 0.00 0.00 0.00 78 1020.2
20260901151120 86 261 0.0 0.0 0.00 0.00 0.00 77 1020.2
20260901150618 86 261 0.0 0.0 0.00 0.00 0.00 78 1020.2
20260901150119 85 261 0.0 0.0 0.00 0.00 0.00 80 1020.2
20260901145613 84 261 0.0 0.0 0.00 0.00 0.00 81 1020.2
20260901145107 84 261 0.0 0.0 0.00 0.00 0.00 79 1020.2
20260901144602 84 261 0.0 0.0 0.00 0.00 0.00 80 1020.2
20260901144055 84 259 0.0 0.0 0.00 0.00 0.00 82 1020.3
20260901143548 83 259 0.0 0.0 0.00 0.00 0.00 84 1020.2
20260901143043 83 259 0.0 0.0 0.00 0.00 0.00 82 1020.2
20260901142536 83 254 0.0 0.0 0.00 0.00 0.00 82 1020.3
20260901142031 82 253 0.0 0.0 0.00 0.00 0.00 84 1020.2
20260901141755 82 254 0.0 0.0 0.00 0.00 0.00 87 1020.2
20260901140746 81 254 0.0 0.0 0.00 0.00 0.00 88 1020.1
20260901140007 80 254 0.0 0.0 0.00 0.00 0.00 90 1020.1
20260901135501 79 254 0.0 0.0 0.00 0.00 0.00 91 1020.1
20260901134955 78 254 0.0 0.0 0.00 0.00 0.00 93 1020.1
20260901134449 77 254 0.0 0.0 0.00 0.00 0.00 92 1020.2
20260901133942 77 254 0.0 0.0 0.00 0.00 0.00 97 1020.2
20260901133437 76 254 0.0 0.0 0.00 0.00 0.00 97 1020.2
20260901132930 76 254 0.0 0.0 0.00 0.00 0.00 99 1020.2
20260901132424 75 254 0.0 0.0 0.00 0.00 0.00 99 1020.2
20260901131919 74 254 0.0 0.0 0.00 0.00 0.00 100 1020.2
20260901131645 74 254 0.0 0.0 0.00 0.00 0.00 100 1020.3
20260901130907 74 254 0.0 0.0 0.00 0.00 0.00 100 1020.3
20260901130401 73 254 0.0 0.0 0.00 0.00 0.00 100 1020.2
20260901125854 72 254 0.0 0.0 0.00 0.00 0.00 100 1020.2
20260901125348 72 254 0.0 0.0 0.00 0.00 0.00 100 1020.2
20260901124843 72 254 0.0 0.0 0.00 0.00 0.00 100 1020.4
20260901124337 71 254 0.0 0.0 0.00 0.00 0.00 100 1020.3
20260901123831 70 254 0.0 0.0 0.00 0.00 0.00 100 1020.3
20260901123324 69 254 0.0 0.0 0.00 0.00 0.00 100 1020.4
20260901123049 69 254 0.0 0.0 0.00 0.00 0.00 100 1020.3
20260901122312 68 254 0.0 0.0 0.00 0.00 0.00 100 1020.3
20260901121806 68 254 0.0 0.0 0.00 0.00 0.00 100 1020.3
20260901121300 68 254 0.0 0.0 0.00 0.00 0.00 100 1020.2
20260901121029 68 254 0.0 0.0 0.00 0.00 0.00 100 1020.2
20260901120802 68 254 0.0 0.0 0.00 0.00 0.00 100 1020.2
20260901120249 67 254 0.0 0.0 0.00 0.00 0.00 100 1020.1
20260901115743 67 254 0.0 0.0 0.00 0.00 0.00 100 1020.0
20260901115237 67 254 0.0 0.0 0.00 0.00 0.00 100 1019.9
20260901114731 66 254 0.0 0.0 0.00 0.00 0.00 100 1019.9
20260901114224 66 254 0.0 0.0 0.00 0.00 0.00 100 1019.6
20260901113719 66 254 0.0 0.0 0.00 0.00 0.00 100 1019.6
20260901113445 66 254 0.0 0.0 0.00 0.00 0.00 100 1019.6
20260901112707 66 254 0.0 0.0 0.00 0.00 0.00 100 1019.5
20260901112207 66 254 0.0 0.0 0.00 0.00 0.00 100 1019.4
20260901111704 66 254 0.0 0.0 0.00 0.00 0.00 100 1019.4
20260901111203 66 254 0.0 0.0 0.00 0.00 0.00 100 1019.4
20260901110700 66 254 0.0 0.0 0.00 0.00 0.00 100 1019.4
20260901110158 66 254 0.0 0.0 0.00 0.00 0.00 100 1019.3
20260901105706 66 254 0.0 0.0 0.00 0.00 0.00 100 1019.2
20260901104952 66 254 0.0 0.0 0.00 0.00 0.00 100 1019.1
20260901104152 66 254 0.0 0.0 0.00 0.00 0.00 100 1019.1
20260901103656 66 254 0.0 0.0 0.00 0.00 0.00 100 1019.1
20260901103422 66 254 0.0 0.0 0.00 0.00 0.00 100 1018.9
20260901102921 66 254 0.0 0.0 0.00 0.00 0.00 100 1018.9
20260901102417 67 254 0.0 0.0 0.00 0.00 0.00 100 1018.9
20260901101646 67 254 0.0 0.0 0.00 0.00 0.00 100 1018.9
20260901101145 67 254 0.0 0.0 0.00 0.00 0.00 100 1018.9
20260901100644 66 254 0.0 0.0 0.00 0.00 0.00 100 1018.9
20260901100417 67 254 0.0 0.0 0.00 0.00 0.00 100 1018.8
20260901095641 67 254 0.0 0.0 0.00 0.00 0.00 100 1018.7
20260901095140 67 254 0.0 0.0 0.00 0.00 0.00 100 1018.7
20260901094148 67 254 0.0 0.0 0.00 0.00 0.00 100 1018.8
20260901093639 67 254 0.0 0.0 0.00 0.00 0.00 100 1018.8
20260901093139 67 254 0.0 0.0 0.00 0.00 0.00 100 1018.8
20260901092641 67 254 0.0 0.0 0.00 0.00 0.00 100 1018.9
20260901092445 67 254 0.0 0.0 0.00 0.00 0.00 100 1018.9
20260901091641 67 254 0.0 0.0 0.00 0.00 0.00 100 1018.8
20260901091137 67 254 0.0 0.0 0.00 0.00 0.00 100 1018.9
20260901090636 67 254 0.0 0.0 0.00 0.00 0.00 100 1018.8
20260901090408 67 254 0.0 0.0 0.00 0.00 0.00 100 1018.8
20260901085635 67 254 0.0 0.0 0.00 0.00 0.00 100 1018.8
20260901085138 67 254 0.0 0.0 0.00 0.00 0.00 100 1018.9
20260901084635 67 254 0.0 0.0 0.00 0.00 0.00 100 1019.0
20260901084137 67 254 0.0 0.0 0.00 0.00 0.00 100 1019.1
20260901083635 67 254 0.0 0.0 0.00 0.00 0.00 100 1019.2
20260901083134 67 254 0.0 0.0 0.00 0.00 0.00 100 1019.1
20260901082634 67 254 0.0 0.0 0.00 0.00 0.00 100 1019.1
20260901082359 67 254 0.0 0.0 0.00 0.00 0.00 100 1019.1
20260901081854 67 254 0.0 0.0 0.00 0.00 0.00 100 1019.1
20260901081347 67 254 0.0 0.0 0.00 0.00 0.00 100 1019.1
20260901080610 67 254 0.0 0.0 0.00 0.00 0.00 100 1019.1
20260901080103 68 254 0.0 0.0 0.00 0.00 0.00 100 1019.1
20260901075830 68 254 0.0 0.0 0.00 0.00 0.00 100 1019.1
20260901075324 68 254 0.0 0.0 0.00 0.00 0.00 100 1019.1
20260901074817 68 254 0.0 0.0 0.00 0.00 0.00 100 1019.1
20260901074039 68 254 0.0 0.0 0.00 0.00 0.00 100 1019.2
20260901073534 68 254 0.0 0.0 0.00 0.00 0.00 100 1019.1
20260901073300 68 254 0.0 0.0 0.00 0.00 0.00 100 1019.2
20260901072521 68 254 0.0 0.0 0.00 0.00 0.00 100 1019.2
20260901072015 68 254 0.0 0.0 0.00 0.00 0.00 100 1019.2
20260901071003 68 254 0.0 0.0 0.00 0.00 0.00 100 1019.2
20260901070458 68 254 0.0 0.0 0.00 0.00 0.00 100 1019.2
20260901065952 68 254 0.0 0.0 0.00 0.00 0.00 100 1019.3
20260901065445 68 254 0.0 0.0 0.00 0.00 0.00 100 1019.3
20260901064937 68 254 0.0 0.0 0.00 0.00 0.00 100 1019.3
20260901064432 68 254 0.0 0.0 0.00 0.00 0.00 100 1019.3
20260901063926 68 254 0.0 0.0 0.00 0.00 0.00 100 1019.4
20260901063420 68 254 0.0 0.0 0.00 0.00 0.00 100 1019.4
20260901062913 68 254 0.0 0.0 0.00 0.00 0.00 100 1019.4
20260901062409 68 254 0.0 0.0 0.00 0.00 0.00 100 1019.4
20260901061902 69 254 0.0 0.0 0.00 0.00 0.00 100 1019.4
20260901061356 69 254 0.0 0.0 0.00 0.00 0.00 100 1019.4
20260901060849 69 254 0.0 0.0 0.00 0.00 0.00 100 1019.4
20260901060344 69 254 0.0 0.0 0.00 0.00 0.00 100 1019.5
20260901055838 69 254 0.0 0.0 0.00 0.00 0.00 100 1019.5
20260901055332 69 254 0.0 0.0 0.00 0.00 0.00 100 1019.5
20260901054826 69 254 0.0 0.0 0.00 0.00 0.00 99 1019.5
20260901054320 69 254 0.0 0.0 0.00 0.00 0.00 100 1019.6
20260901053814 69 254 0.0 0.0 0.00 0.00 0.00 100 1019.6
20260901053308 69 254 0.0 0.0 0.00 0.00 0.00 100 1019.6
20260901052802 69 254 0.0 0.0 0.00 0.00 0.00 100 1019.6
20260901052256 69 254 0.0 0.0 0.00 0.00 0.00 100 1019.9
20260901051750 69 254 0.0 0.0 0.00 0.00 0.00 100 1019.8
20260901051516 69 254 0.0 0.0 0.00 0.00 0.00 100 1019.8
20260901051008 69 254 0.0 0.0 0.00 0.00 0.00 100 1019.9
20260901050232 69 254 0.0 0.0 0.00 0.00 0.00 99 1019.9
20260901045725 70 254 0.0 0.0 0.00 0.00 0.00 99 1019.9
20260901045219 70 254 0.0 0.0 0.00 0.00 0.00 99 1019.9
20260901044946 70 254 0.0 0.0 0.00 0.00 0.00 99 1019.8
20260901044208 70 254 0.0 0.0 0.00 0.00 0.00 100 1019.8
20260901043702 70 254 0.0 0.0 0.00 0.00 0.00 99 1019.8
20260901043156 70 254 0.0 0.0 0.00 0.00 0.00 100 1019.6
20260901042650 70 254 0.0 0.0 0.00 0.00 0.00 100 1019.6
20260901042144 70 254 0.0 0.0 0.00 0.00 0.00 100 1019.5
20260901041637 70 254 0.0 0.0 0.00 0.00 0.00 100 1019.5
20260901041132 70 254 0.0 0.0 0.00 0.00 0.00 100 1019.4
20260901040626 70 254 0.0 0.0 0.00 0.00 0.00 100 1019.5
20260901040351 70 254 0.0 0.0 0.00 0.00 0.00 99 1019.4
20260901035621 70 254 0.0 0.0 0.00 0.00 0.00 99 1019.4
20260901035118 70 254 0.0 0.0 0.00 0.00 0.00 99 1019.4
20260901034618 71 254 0.0 0.0 0.00 0.00 0.00 99 1019.4
20260901034117 71 254 0.0 0.0 0.00 0.00 0.00 99 1019.4
20260901033617 71 254 0.0 0.0 0.00 0.00 0.00 99 1019.3
20260901033349 71 254 0.0 0.0 0.00 0.00 0.00 99 1019.3
20260901032617 71 254 0.0 0.0 0.00 0.00 0.00 99 1019.3
20260901032116 71 254 0.0 0.0 0.00 0.00 0.00 99 1019.4
20260901031615 71 254 0.0 0.0 0.00 0.00 0.00 99 1019.4
20260901031113 71 254 0.0 0.0 0.00 0.00 0.00 99 1019.5
20260901030612 71 254 0.0 0.0 0.00 0.00 0.00 99 1019.5
20260901030113 71 254 0.0 0.0 0.00 0.00 0.00 99 1019.5
20260901025611 71 254 0.0 0.0 0.00 0.00 0.00 99 1019.5
20260901025110 71 254 0.0 0.0 0.00 0.00 0.00 99 1019.5
20260901024610 71 254 0.0 0.0 0.00 0.00 0.00 99 1019.5
20260901024110 72 254 0.0 0.0 0.00 0.00 0.00 99 1019.5
20260901023611 72 254 0.0 0.0 0.00 0.00 0.00 99 1019.5
20260901023107 72 254 0.0 0.0 0.00 0.00 0.00 99 1019.4
20260901022605 72 254 0.0 0.0 0.00 0.00 0.00 99 1019.4
20260901022107 72 254 0.0 0.0 0.00 0.00 0.00 99 1019.4
20260901021606 72 254 0.0 0.0 0.00 0.00 0.00 99 1019.4
20260901021106 72 254 0.0 0.0 0.00 0.00 0.00 98 1019.4
20260901020109 73 254 0.0 0.0 0.00 0.00 0.00 98 1019.3
20260901015608 73 254 0.0 0.0 0.00 0.00 0.00 98 1019.3
20260901015340 73 254 0.0 0.0 0.00 0.00 0.00 98 1019.3
20260901014605 73 254 0.0 0.0 0.00 0.00 0.00 98 1019.2
20260901014104 73 254 0.0 0.0 0.00 0.00 0.00 98 1019.2
20260901013605 73 254 0.0 0.0 0.00 0.00 0.00 98 1019.1
20260901013103 73 254 0.0 0.0 0.00 0.00 0.00 97 1019.1
20260901012602 74 254 0.0 0.0 0.00 0.00 0.00 97 1019.0
20260901012101 74 254 0.0 0.0 0.00 0.00 0.00 98 1018.9
20260901011602 74 254 0.0 0.0 0.00 0.00 0.00 98 1018.8
20260901011101 74 254 0.0 0.0 0.00 0.00 0.00 97 1018.8
20260901010100 74 254 0.0 0.0 0.00 0.00 0.00 97 1018.7
20260901005825 74 254 0.0 0.0 0.00 0.00 0.00 96 1018.7
20260901005319 74 254 0.0 0.0 0.00 0.00 0.00 96 1018.6
20260901004542 75 254 0.0 0.0 0.00 0.00 0.00 95 1018.6
20260901004036 75 254 0.0 0.0 0.00 0.00 0.00 95 1018.5
20260901003530 76 254 0.0 0.0 0.00 0.00 0.00 94 1018.6
20260901003255 76 254 0.0 0.0 0.00 0.00 0.00 94 1018.6
20260901002518 76 254 0.0 0.0 0.00 0.00 0.00 94 1018.5
20260901002012 77 254 0.0 0.0 0.00 0.00 0.00 94 1018.5
20260901001506 77 254 0.0 0.0 0.00 0.00 0.00 93 1018.5
20260901001000 77 254 0.0 0.0 0.00 0.00 0.00 93 1018.4
20260901000453 78 254 0.0 0.0 0.00 0.00 0.00 92 1018.5
20260831235948 78 254 0.0 0.0 0.00 0.00 0.00 92 1018.4
20260831235442 78 254 0.0 0.0 0.00 0.00 0.00 91 1018.5
20260831235208 79 254 0.0 0.0 0.00 0.00 0.00 90 1018.5
20260831234435 80 254 0.0 0.0 0.00 0.00 0.00 90 1018.5
20260831234154 80 254 0.0 0.0 0.00 0.00 0.00 90 1018.4
20260831233649 80 254 0.0 0.0 0.00 0.00 0.00 89 1018.5
20260831232912 80 254 0.0 0.0 0.00 0.00 0.00 89 1018.5
20260831232405 80 254 0.0 0.0 0.00 0.00 0.00 88 1018.5
20260831231900 80 254 0.0 0.0 0.00 0.00 0.00 89 1018.5
20260831231624 80 254 0.0 0.0 0.00 0.00 0.00 88 1018.6
20260831230847 80 254 0.0 0.0 0.00 0.00 0.00 89 1018.5
20260831230342 80 254 0.0 0.0 0.00 0.00 0.00 89 1018.5
20260831225836 80 254 0.0 0.0 0.00 0.00 0.00 90 1018.5
20260831225601 80 254 0.0 0.0 0.00 0.00 0.00 88 1018.5
20260831224824 80 254 0.0 0.0 0.00 0.00 0.00 87 1018.5
20260831224318 80 254 0.0 0.0 0.00 0.00 0.00 86 1018.6
20260831223812 81 254 0.0 0.0 0.00 0.00 0.00 85 1018.6
20260831223306 81 254 0.0 0.0 0.00 0.00 0.00 83 1018.5
20260831223031 81 254 0.0 0.0 0.00 0.00 0.00 84 1018.6
20260831222254 80 254 0.0 0.0 0.00 0.00 0.00 83 1018.6
20260831221748 80 254 0.0 0.0 0.00 0.00 0.00 84 1018.7
20260831221241 80 254 0.0 0.0 0.00 0.00 0.00 83 1018.8
20260831220736 81 19 0.0 0.0 0.00 0.00 0.00 86 1018.8
20260831220230 81 19 0.0 0.0 0.00 0.00 0.00 84 1018.7
20260831215724 81 19 0.0 0.0 0.00 0.00 0.00 84 1018.8
20260831215217 81 19 0.0 0.0 0.00 0.00 0.00 82 1018.8
20260831214712 81 19 0.0 5.0 0.00 0.00 0.00 81 1018.9
20260831214206 81 22 0.0 5.0 0.00 0.00 0.00 80 1019.0
20260831213659 81 346 1.0 5.0 0.00 0.00 0.00 80 1019.0
20260831213154 82 17 0.0 4.0 0.00 0.00 0.00 79 1019.0
20260831212648 82 20 0.0 5.0 0.00 0.00 0.00 81 1019.1
20260831212141 82 20 1.0 5.0 0.00 0.00 0.00 78 1019.1
20260831211636 83 348 0.0 5.0 0.00 0.00 0.00 78 1019.1
20260831211130 83 355 1.0 8.0 0.00 0.00 0.00 78 1019.0
20260831210624 83 340 1.0 8.0 0.00 0.00 0.00 77 1019.1
20260831210117 84 340 2.0 11.0 0.00 0.00 0.00 77 1019.1
20260831205612 84 348 5.0 12.0 0.00 0.00 0.00 75 1019.0
20260831205106 86 5 3.0 12.0 0.00 0.00 0.00 72 1019.0
20260831204600 88 5 1.0 5.0 0.00 0.00 0.00 74 1018.9
20260831204054 89 340 1.0 6.0 0.00 0.00 0.00 69 1018.8
20260831203547 89 348 0.0 5.0 0.00 0.00 0.00 66 1018.9
20260831203042 91 339 0.0 3.0 0.00 0.00 0.00 63 1018.9
20260831202816 91 9 0.0 4.0 0.00 0.00 0.00 60 1018.9
20260831202031 91 9 1.0 5.0 0.00 0.00 0.00 62 1019.0
20260831201018 91 350 0.0 4.0 0.00 0.00 0.00 62 1019.0
20260831200512 91 346 0.0 4.0 0.00 0.00 0.00 63 1019.0
20260831200006 91 264 0.0 0.0 0.00 0.00 0.00 66 1018.9
20260831195506 91 332 0.0 2.0 0.00 0.00 0.00 64 1018.9
20260831195003 91 332 0.0 2.0 0.00 0.00 0.00 62 1019.0
20260831193959 91 0 0.0 2.0 0.00 0.00 0.00 66 1019.2
20260831193458 91 0 0.0 2.0 0.00 0.00 0.00 63 1019.2
20260831192958 91 13 0.0 2.0 0.00 0.00 0.00 62 1019.3
20260831192458 91 309 0.0 2.0 0.00 0.00 0.00 65 1019.3
20260831192001 91 309 0.0 3.0 0.00 0.00 0.00 66 1019.3
20260831191458 90 309 0.0 5.0 0.00 0.00 0.00 69 1019.3
20260831190955 90 5 0.0 5.0 0.00 0.00 0.00 65 1019.4
20260831190456 90 265 0.0 3.0 0.00 0.00 0.00 66 1019.3
20260831190227 90 265 0.0 3.0 0.00 0.00 0.00 64 1019.4
20260831185453 90 246 0.0 3.0 0.00 0.00 0.00 67 1019.4
20260831184953 90 246 0.0 3.0 0.00 0.00 0.00 65 1019.5
20260831184725 91 264 0.0 3.0 0.00 0.00 0.00 62 1019.5
20260831183954 90 5 0.0 0.0 0.00 0.00 0.00 69 1019.8
20260831183452 90 5 0.0 0.0 0.00 0.00 0.00 65 1019.9
20260831182952 89 5 0.0 4.0 0.00 0.00 0.00 71 1019.8
20260831182453 89 5 0.0 4.0 0.00 0.00 0.00 65 1019.9
20260831181955 89 72 0.0 1.0 0.00 0.00 0.00 67 1019.9
20260831181454 89 321 0.0 1.0 0.00 0.00 0.00 72 1020.0
20260831180953 89 319 0.0 1.0 0.00 0.00 0.00 68 1020.0
20260831180453 89 319 0.0 1.0 0.00 0.00 0.00 68 1020.1
20260831180000 88 321 0.0 3.0 0.00 0.00 0.00 73 1020.2
20260831175453 88 321 0.0 3.0 0.00 0.00 0.00 70 1020.2
20260831174952 88 279 0.0 3.0 0.00 0.00 0.00 69 1020.3
20260831174453 88 269 0.0 1.0 0.00 0.00 0.00 70 1020.3
20260831174224 88 269 0.0 4.0 0.00 0.00 0.00 71 1020.4
20260831173452 88 269 0.0 4.0 0.00 0.00 0.00 72 1020.4
20260831172723 88 263 0.0 6.0 0.00 0.00 0.00 73 1020.5
20260831171956 88 306 0.0 2.0 0.00 0.00 0.00 72 1020.5
20260831171452 87 306 0.0 2.0 0.00 0.00 0.00 74 1020.4
20260831170953 87 319 0.0 2.0 0.00 0.00 0.00 73 1020.5
20260831170447 87 319 0.0 2.0 0.00 0.00 0.00 73 1020.5
20260831165941 87 273 0.0 1.0 0.00 0.00 0.00 72 1020.6
20260831165435 86 272 0.0 1.0 0.00 0.00 0.00 77 1020.7
20260831164930 86 272 1.0 6.0 0.00 0.00 0.00 78 1020.7
20260831164423 86 272 1.0 7.0 0.00 0.00 0.00 74 1020.8
20260831163917 86 254 0.0 7.0 0.00 0.00 0.00 79 1020.8
20260831163411 86 244 0.0 2.0 0.00 0.00 0.00 74 1020.8
20260831163135 86 244 0.0 0.0 0.00 0.00 0.00 77 1020.9
20260831162359 86 244 1.0 5.0 0.00 0.00 0.00 78 1020.9
20260831161853 85 244 1.0 5.0 0.00 0.00 0.00 77 1020.8
20260831161618 85 289 0.0 1.0 0.00 0.00 0.00 81 1020.9